Location: Leiter
(44.7178°N, 106.2687°W)
Time: 23:04:39
(UTC+00:00)

CUBESAT XI-V - Pass Details

Date: 30 June 2022
Orbit: 668 x 690 km, 98.1° (Epoch: 16 August)

Event Time Altitude Azimuth Distance (km) Brightness Sun altitude
Exits shadow 07:16:57 - 105° (ESE) 2,505 ? -22.1°
Reaches altitude 10° 07:18:32 10° 90° (E) 2,109 ? -22.1°
Maximum altitude 07:20:51 14° 60° (ENE) 1,858 ? -22.1°
Drops below altitude 10° 07:23:10 10° 29° (NNE) 2,110 ? -22.0°
Sets 07:26:24 0° 5° (N) 3,026 ? -22.0°
